Location: Cisewo
(53.3833°N, 14.9000°E)
Time: 11:42:26
(UTC+00:00)

Cosmos 2151 - Pass Details

Date: 18 April 2021
Orbit: 581 x 600 km, 82.5° (Epoch: 14 May)

Event Time Altitude Azimuth Distance (km) Brightness Sun altitude
Rises 20:36:19 0° 343° (NNW) 2,865 7.8 -18.6°
Reaches altitude 10° 20:38:40 10° 335° (NNW) 1,957 6.8 -18.8°
Maximum altitude 20:42:37 36° 269° (W) 957 4.3 -19.2°
Enters shadow 20:45:17 18° 211° (SSW) 1,490 4.8 -19.4°
